Torna al catalogo

JILIN-01-07

AttivoScienzaSSO
NORAD 43159·PAYLOAD·🇨🇳 China

Lanciato Jan 19, 2018 da Jiuquan Satellite Launch Center

Loading…

Prossimi Passaggi (prossime 24 ore)

TLE

AggiornatoSource: Space-Track

Epoca: Sep 14, 2026, 23:10 UTC

1 43159U 18008E   26257.96586544  .00008019  00000-0  23058-3 0  9997
2 43159  97.1756 275.5758 0010090  94.4597 265.7801 15.36006720478778

Traccia JILIN-01-07 in tempo reale con AllMySat

Download on the App Store